Time,TemperatureF,DewpointF,PressureIn,WindDirection,WindDirectionDegrees,WindSpeedMPH,WindSpeedGustMPH,Humidity,HourlyPrecipIn,Conditions,Clouds,dailyrainin,SoftwareType,DateUTC
2014-04-17 00:04:00,70.5,30.9,29.90,WSW,249,0.0,0.0,23,0.00,,,0.00,WeatherTracker,2014-04-17 07:04:00,
2014-04-17 00:09:00,70.5,30.9,29.90,WSW,249,0.0,0.0,23,0.00,,,0.00,WeatherTracker,2014-04-17 07:09:00,
2014-04-17 00:14:00,70.5,30.9,29.90,WSW,248,0.0,0.0,23,0.00,,,0.00,WeatherTracker,2014-04-17 07:14:00,
2014-04-17 00:19:00,70.5,30.9,29.90,WSW,249,0.0,0.0,23,0.00,,,0.00,WeatherTracker,2014-04-17 07:19:00,
2014-04-17 00:24:00,70.3,30.8,29.87,WSW,248,0.0,0.0,23,0.00,,,0.00,WeatherTracker,2014-04-17 07:24:00,
2014-04-17 00:29:00,70.3,30.8,29.87,WSW,248,0.0,0.0,23,0.00,,,0.00,WeatherTracker,2014-04-17 07:29:00,
2014-04-17 00:34:00,70.3,30.8,29.87,WSW,249,0.0,0.0,23,0.00,,,0.00,WeatherTracker,2014-04-17 07:34:00,
2014-04-17 00:40:00,70.2,30.6,29.90,WSW,248,0.0,0.0,23,0.00,,,0.00,WeatherTracker,2014-04-17 07:40:00,
2014-04-17 00:45:00,70.2,30.6,29.90,WSW,248,0.0,0.0,23,0.00,,,0.00,WeatherTracker,2014-04-17 07:45:00,
2014-04-17 00:50:00,70.0,30.5,29.90,WSW,248,0.0,0.0,23,0.00,,,0.00,WeatherTracker,2014-04-17 07:50:00,
2014-04-17 00:55:00,70.0,30.5,29.90,West,269,0.0,0.0,23,0.00,,,0.00,WeatherTracker,2014-04-17 07:55:00,
2014-04-17 01:00:00,70.0,30.5,29.90,West,268,0.0,0.0,23,0.00,,,0.00,WeatherTracker,2014-04-17 08:00:00,
2014-04-17 01:05:00,70.0,30.5,29.90,WSW,238,0.0,0.0,23,0.00,,,0.00,WeatherTracker,2014-04-17 08:05:00,
2014-04-17 01:10:00,70.0,30.5,29.90,WSW,238,0.0,0.0,23,0.00,,,0.00,WeatherTracker,2014-04-17 08:10:00,
2014-04-17 01:15:00,69.3,29.9,29.90,WSW,238,0.0,0.0,23,0.00,,,0.00,WeatherTracker,2014-04-17 08:15:00,
2014-04-17 01:20:00,69.3,30.9,29.90,WSW,238,0.0,0.0,24,0.00,,,0.00,WeatherTracker,2014-04-17 08:20:00,
2014-04-17 01:25:00,69.4,31.1,29.90,WSW,238,0.0,0.0,24,0.00,,,0.00,WeatherTracker,2014-04-17 08:25:00,
2014-04-17 01:30:00,69.1,30.8,29.90,WSW,238,0.0,0.0,24,0.00,,,0.00,WeatherTracker,2014-04-17 08:30:00,
2014-04-17 01:35:00,68.9,30.6,29.90,WSW,238,0.0,0.0,24,0.00,,,0.00,WeatherTracker,2014-04-17 08:35:00,
2014-04-17 01:40:00,69.1,30.8,29.87,WSW,238,0.0,0.0,24,0.00,,,0.00,WeatherTracker,2014-04-17 08:40:00,
2014-04-17 01:45:00,69.1,30.8,29.87,WSW,238,0.0,0.0,24,0.00,,,0.00,WeatherTracker,2014-04-17 08:45:00,
2014-04-17 01:50:00,69.1,30.8,29.87,WSW,238,0.0,0.0,24,0.00,,,0.00,WeatherTracker,2014-04-17 08:50:00,
2014-04-17 01:55:00,68.9,29.6,29.87,WSW,238,0.0,0.0,23,0.00,,,0.00,WeatherTracker,2014-04-17 08:55:00,
2014-04-17 02:00:00,68.2,29.0,29.87,WSW,238,0.0,0.0,23,0.00,,,0.00,WeatherTracker,2014-04-17 09:00:00,
2014-04-17 02:05:00,68.0,30.9,29.87,WSW,238,0.0,0.0,25,0.00,,,0.00,WeatherTracker,2014-04-17 09:05:00,
2014-04-17 02:10:00,68.0,30.9,29.87,SSE,154,0.0,0.0,25,0.00,,,0.00,WeatherTracker,2014-04-17 09:10:00,
2014-04-17 02:15:00,68.0,30.9,29.87,SSE,154,0.0,0.0,25,0.00,,,0.00,WeatherTracker,2014-04-17 09:15:00,
2014-04-17 02:20:00,68.0,29.9,29.87,SSE,154,0.0,0.0,24,0.00,,,0.00,WeatherTracker,2014-04-17 09:20:00,
2014-04-17 02:25:00,67.6,30.6,29.87,SSE,154,0.0,0.0,25,0.00,,,0.00,WeatherTracker,2014-04-17 09:25:00,
2014-04-17 02:26:00,67.8,30.7,29.87,SSE,154,0.0,0.0,25,0.00,,,0.00,WeatherTracker,2014-04-17 09:26:00,
2014-04-17 02:31:00,67.6,30.6,29.87,SSE,154,0.0,0.0,25,0.00,,,0.00,WeatherTracker,2014-04-17 09:31:00,
2014-04-17 02:36:00,67.8,31.7,29.87,SSE,154,0.0,0.0,26,0.00,,,0.00,WeatherTracker,2014-04-17 09:36:00,
2014-04-17 02:41:00,68.0,30.9,29.87,SSE,154,0.0,0.0,25,0.00,,,0.00,WeatherTracker,2014-04-17 09:41:00,
2014-04-17 02:46:00,67.6,30.6,29.87,SSE,154,0.0,0.0,25,0.00,,,0.00,WeatherTracker,2014-04-17 09:46:00,
2014-04-17 02:51:00,67.6,30.6,29.87,SSE,154,0.0,0.0,25,0.00,,,0.00,WeatherTracker,2014-04-17 09:51:00,
2014-04-17 02:56:00,67.6,30.6,29.87,SSE,154,0.0,0.0,25,0.00,,,0.00,WeatherTracker,2014-04-17 09:56:00,
2014-04-17 03:03:00,67.8,30.7,29.87,SSE,154,0.0,0.0,25,0.00,,,0.00,WeatherTracker,2014-04-17 10:03:00,
2014-04-17 03:08:00,67.6,30.6,29.87,SSE,154,0.0,0.0,25,0.00,,,0.00,WeatherTracker,2014-04-17 10:08:00,
2014-04-17 03:13:00,67.8,30.7,29.87,SSE,154,0.0,0.0,25,0.00,,,0.00,WeatherTracker,2014-04-17 10:13:00,
2014-04-17 03:18:00,67.8,30.7,29.87,SSE,154,0.0,0.0,25,0.00,,,0.00,WeatherTracker,2014-04-17 10:18:00,
2014-04-17 03:23:00,67.8,30.7,29.87,SSE,154,0.0,0.0,25,0.00,,,0.00,WeatherTracker,2014-04-17 10:23:00,
2014-04-17 03:28:00,67.8,30.7,29.87,SSE,154,0.0,0.0,25,0.00,,,0.00,WeatherTracker,2014-04-17 10:28:00,
2014-04-17 03:33:00,67.6,30.6,29.87,SSE,154,0.0,0.0,25,0.00,,,0.00,WeatherTracker,2014-04-17 10:33:00,
2014-04-17 03:38:00,67.6,30.6,29.87,SSE,154,0.0,0.0,25,0.00,,,0.00,WeatherTracker,2014-04-17 10:38:00,
2014-04-17 03:43:00,67.6,30.6,29.87,SSE,154,0.0,0.0,25,0.00,,,0.00,WeatherTracker,2014-04-17 10:43:00,
2014-04-17 03:48:00,67.6,30.6,29.87,SSE,154,0.0,0.0,25,0.00,,,0.00,WeatherTracker,2014-04-17 10:48:00,
2014-04-17 03:53:00,67.6,30.6,29.87,SSE,154,0.0,0.0,25,0.00,,,0.00,WeatherTracker,2014-04-17 10:53:00,
2014-04-17 03:58:00,67.5,30.4,29.87,WNW,288,0.0,0.0,25,0.00,,,0.00,WeatherTracker,2014-04-17 10:58:00,
2014-04-17 04:03:00,67.3,30.3,29.87,WSW,244,0.0,0.0,25,0.00,,,0.00,WeatherTracker,2014-04-17 11:03:00,
2014-04-17 04:08:00,67.3,30.3,29.87,SW,230,0.0,4.0,25,0.00,,,0.00,WeatherTracker,2014-04-17 11:08:00,
2014-04-17 04:13:00,67.3,30.3,29.87,WSW,241,0.0,0.0,25,0.00,,,0.00,WeatherTracker,2014-04-17 11:13:00,
2014-04-17 04:18:00,67.3,30.3,29.87,WNW,301,0.0,0.0,25,0.00,,,0.00,WeatherTracker,2014-04-17 11:18:00,
2014-04-17 04:23:00,67.3,30.3,29.87,NW,317,0.0,0.0,25,0.00,,,0.00,WeatherTracker,2014-04-17 11:23:00,
2014-04-17 04:28:00,67.1,30.1,29.87,WNW,287,0.0,0.0,25,0.00,,,0.00,WeatherTracker,2014-04-17 11:28:00,
2014-04-17 04:33:00,66.9,29.9,29.87,WSW,249,5.0,5.0,25,0.00,,,0.00,WeatherTracker,2014-04-17 11:33:00,
2014-04-17 04:38:00,66.9,29.9,29.87,WNW,283,4.0,4.0,25,0.00,,,0.00,WeatherTracker,2014-04-17 11:38:00,
2014-04-17 04:43:00,66.7,30.8,29.87,WNW,289,4.0,4.0,26,0.00,,,0.00,WeatherTracker,2014-04-17 11:43:00,
2014-04-17 04:48:00,66.6,30.6,29.87,West,279,3.0,3.0,26,0.00,,,0.00,WeatherTracker,2014-04-17 11:48:00,
2014-04-17 04:53:00,66.4,30.5,29.87,NW,308,3.0,3.0,26,0.00,,,0.00,WeatherTracker,2014-04-17 11:53:00,
2014-04-17 04:58:00,66.2,31.2,29.87,WNW,288,2.0,3.0,27,0.00,,,0.00,WeatherTracker,2014-04-17 11:58:00,
2014-04-17 05:03:00,66.4,31.4,29.87,WNW,291,3.0,3.0,27,0.00,,,0.00,WeatherTracker,2014-04-17 12:03:00,
2014-04-17 05:08:00,66.4,31.4,29.87,NW,316,0.0,5.0,27,0.00,,,0.00,WeatherTracker,2014-04-17 12:08:00,
2014-04-17 05:13:00,66.4,31.4,29.87,WNW,297,4.0,4.0,27,0.00,,,0.00,WeatherTracker,2014-04-17 12:13:00,
2014-04-17 05:18:00,66.4,31.4,29.87,NW,307,3.0,3.0,27,0.00,,,0.00,WeatherTracker,2014-04-17 12:18:00,
2014-04-17 05:23:00,66.2,31.2,29.87,NNW,327,2.0,0.0,27,0.00,,,0.00,WeatherTracker,2014-04-17 12:23:00,
2014-04-17 05:28:00,66.4,31.4,29.87,NW,320,0.0,0.0,27,0.00,,,0.00,WeatherTracker,2014-04-17 12:28:00,
2014-04-17 05:33:00,66.2,31.2,29.87,NW,318,0.0,0.0,27,0.00,,,0.00,WeatherTracker,2014-04-17 12:33:00,
2014-04-17 05:38:00,66.2,31.2,29.87,WNW,295,0.0,0.0,27,0.00,,,0.00,WeatherTracker,2014-04-17 12:38:00,
2014-04-17 05:43:00,66.2,31.2,29.87,NW,309,0.0,0.0,27,0.00,,,0.00,WeatherTracker,2014-04-17 12:43:00,
2014-04-17 05:48:00,66.2,31.2,29.87,NNW,333,0.0,0.0,27,0.00,,,0.00,WeatherTracker,2014-04-17 12:48:00,
2014-04-17 05:53:00,66.0,32.0,29.87,NW,318,0.0,0.0,28,0.00,,,0.00,WeatherTracker,2014-04-17 12:53:00,
2014-04-17 05:58:00,66.0,32.0,29.87,WNW,302,0.0,0.0,28,0.00,,,0.00,WeatherTracker,2014-04-17 12:58:00,
2014-04-17 06:03:00,66.0,32.0,29.87,NW,314,0.0,0.0,28,0.00,,,0.00,WeatherTracker,2014-04-17 13:03:00,
2014-04-17 06:08:00,66.2,32.1,29.90,West,274,0.0,0.0,28,0.00,,,0.00,WeatherTracker,2014-04-17 13:08:00,
2014-04-17 06:13:00,66.0,31.1,29.90,NNW,346,0.0,0.0,27,0.00,,,0.00,WeatherTracker,2014-04-17 13:13:00,
2014-04-17 06:18:00,65.8,31.8,29.90,NNW,345,0.0,0.0,28,0.00,,,0.00,WeatherTracker,2014-04-17 13:18:00,
2014-04-17 06:23:00,65.7,33.8,29.87,WNW,294,0.0,0.0,29,0.00,,,0.00,WeatherTracker,2014-04-17 13:23:00,
2014-04-17 06:28:00,65.7,33.8,29.87,NNW,333,0.0,0.0,29,0.00,,,0.00,WeatherTracker,2014-04-17 13:28:00,
2014-04-17 06:33:00,65.5,33.8,29.87,NNW,333,0.0,0.0,29,0.00,,,0.00,WeatherTracker,2014-04-17 13:33:00,
2014-04-17 06:38:00,65.5,33.8,29.90,NW,307,0.0,4.0,30,0.00,,,0.00,WeatherTracker,2014-04-17 13:38:00,
2014-04-17 06:43:00,65.5,33.8,29.90,WSW,257,0.0,4.0,30,0.00,,,0.00,WeatherTracker,2014-04-17 13:43:00,
2014-04-17 06:48:00,65.5,33.8,29.90,WSW,256,0.0,0.0,30,0.00,,,0.00,WeatherTracker,2014-04-17 13:48:00,
2014-04-17 06:53:00,65.7,33.8,29.90,WSW,256,0.0,0.0,30,0.00,,,0.00,WeatherTracker,2014-04-17 13:53:00,
2014-04-17 06:58:00,65.8,33.8,29.90,WSW,256,0.0,0.0,30,0.00,,,0.00,WeatherTracker,2014-04-17 13:58:00,
2014-04-17 07:03:00,65.8,33.8,29.90,NW,320,0.0,0.0,29,0.00,,,0.00,WeatherTracker,2014-04-17 14:03:00,
2014-04-17 07:08:00,65.8,33.8,29.90,NW,314,3.0,3.0,29,0.00,,,0.00,WeatherTracker,2014-04-17 14:08:00,
2014-04-17 07:13:00,65.8,33.8,29.90,NW,314,0.0,0.0,30,0.00,,,0.00,WeatherTracker,2014-04-17 14:13:00,
2014-04-17 07:18:00,66.0,33.8,29.90,NNW,340,0.0,0.0,29,0.00,,,0.00,WeatherTracker,2014-04-17 14:18:00,
2014-04-17 07:23:00,66.0,33.8,29.90,North,349,0.0,0.0,29,0.00,,,0.00,WeatherTracker,2014-04-17 14:23:00,
2014-04-17 07:28:00,65.8,33.8,29.90,North,349,0.0,0.0,29,0.00,,,0.00,WeatherTracker,2014-04-17 14:28:00,
2014-04-17 07:33:00,65.8,31.8,29.90,North,349,0.0,0.0,28,0.00,,,0.00,WeatherTracker,2014-04-17 14:33:00,
2014-04-17 07:38:00,65.7,33.8,29.90,North,349,0.0,0.0,29,0.00,,,0.00,WeatherTracker,2014-04-17 14:38:00,
2014-04-17 07:43:00,65.5,33.8,29.90,NNE,32,0.0,4.0,30,0.00,,,0.00,WeatherTracker,2014-04-17 14:43:00,
2014-04-17 07:48:00,65.1,32.1,29.90,East,96,3.0,3.0,29,0.00,,,0.00,WeatherTracker,2014-04-17 14:48:00,
2014-04-17 07:53:00,64.8,32.6,29.90,NNE,31,4.0,4.0,30,0.00,,,0.00,WeatherTracker,2014-04-17 14:53:00,
2014-04-17 07:58:00,64.9,32.8,29.90,NNE,31,0.0,0.0,30,0.00,,,0.00,WeatherTracker,2014-04-17 14:58:00,
2014-04-17 08:03:00,64.9,32.8,29.90,NE,53,3.0,3.0,30,0.00,,,0.00,WeatherTracker,2014-04-17 15:03:00,
2014-04-17 08:08:00,65.1,32.9,29.90,NE,46,2.0,0.0,30,0.00,,,0.00,WeatherTracker,2014-04-17 15:08:00,
2014-04-17 08:13:00,64.8,32.6,29.90,SE,146,2.0,3.0,30,0.00,,,0.00,WeatherTracker,2014-04-17 15:13:00,
2014-04-17 08:18:00,64.6,32.4,29.90,East,95,3.0,3.0,30,0.00,,,0.00,WeatherTracker,2014-04-17 15:18:00,
2014-04-17 08:23:00,64.8,33.8,29.90,SE,130,0.0,0.0,32,0.00,,,0.00,WeatherTracker,2014-04-17 15:23:00,
2014-04-17 08:28:00,65.1,33.8,29.90,ESE,116,0.0,0.0,31,0.00,,,0.00,WeatherTracker,2014-04-17 15:28:00,
2014-04-17 08:33:00,65.5,33.8,29.90,ESE,116,0.0,0.0,31,0.00,,,0.00,WeatherTracker,2014-04-17 15:33:00,
2014-04-17 08:38:00,66.0,33.8,29.93,West,261,0.0,3.0,31,0.00,,,0.00,WeatherTracker,2014-04-17 15:38:00,
2014-04-17 08:43:00,66.4,33.8,29.93,WSW,252,2.0,4.0,29,0.00,,,0.00,WeatherTracker,2014-04-17 15:43:00,
2014-04-17 08:48:00,66.7,33.8,29.93,WSW,249,3.0,4.0,29,0.00,,,0.00,WeatherTracker,2014-04-17 15:48:00,
2014-04-17 08:53:00,66.9,32.7,29.93,WNW,295,3.0,4.0,28,0.00,,,0.00,WeatherTracker,2014-04-17 15:53:00,
2014-04-17 08:58:00,66.9,31.8,29.93,NNW,327,0.0,0.0,27,0.00,,,0.00,WeatherTracker,2014-04-17 15:58:00,
2014-04-17 09:03:00,66.7,31.7,29.93,ENE,71,0.0,3.0,27,0.00,,,0.00,WeatherTracker,2014-04-17 16:03:00,
2014-04-17 09:08:00,66.4,32.3,29.90,NE,44,0.0,0.0,28,0.00,,,0.00,WeatherTracker,2014-04-17 16:08:00,
2014-04-17 09:13:00,66.4,32.3,29.90,East,97,0.0,3.0,28,0.00,,,0.00,WeatherTracker,2014-04-17 16:13:00,
2014-04-17 09:18:00,66.4,32.3,29.90,SE,131,4.0,4.0,28,0.00,,,0.00,WeatherTracker,2014-04-17 16:18:00,
2014-04-17 09:23:00,66.6,32.4,29.93,SE,128,0.0,4.0,28,0.00,,,0.00,WeatherTracker,2014-04-17 16:23:00,
2014-04-17 09:28:00,66.9,32.7,29.93,ENE,62,0.0,0.0,28,0.00,,,0.00,WeatherTracker,2014-04-17 16:28:00,
2014-04-17 09:33:00,67.5,33.8,29.93,SW,232,0.0,0.0,28,0.00,,,0.00,WeatherTracker,2014-04-17 16:33:00,
2014-04-17 09:38:00,68.2,33.8,29.93,WSW,255,2.0,0.0,28,0.00,,,0.00,WeatherTracker,2014-04-17 16:38:00,
2014-04-17 09:43:00,68.7,33.4,29.93,SSW,200,6.0,6.0,27,0.00,,,0.00,WeatherTracker,2014-04-17 16:43:00,
2014-04-17 09:48:00,69.1,33.8,29.93,WSW,244,3.0,3.0,26,0.00,,,0.00,WeatherTracker,2014-04-17 16:48:00,
2014-04-17 09:53:00,69.4,33.8,29.93,WSW,240,3.0,6.0,26,0.00,,,0.00,WeatherTracker,2014-04-17 16:53:00,
2014-04-17 09:58:00,69.8,32.4,29.93,NW,325,3.0,3.0,25,0.00,,,0.00,WeatherTracker,2014-04-17 16:58:00,
2014-04-17 10:03:00,70.0,32.5,29.93,WSW,247,0.0,5.0,25,0.00,,,0.00,WeatherTracker,2014-04-17 17:03:00,
2014-04-17 10:08:00,70.3,31.8,29.93,SSE,147,5.0,5.0,24,0.00,,,0.00,WeatherTracker,2014-04-17 17:08:00,
2014-04-17 10:13:00,70.5,32.0,29.93,WSW,239,4.0,0.0,24,0.00,,,0.00,WeatherTracker,2014-04-17 17:13:00,
2014-04-17 10:18:00,70.9,33.8,29.93,SW,225,3.0,0.0,24,0.00,,,0.00,WeatherTracker,2014-04-17 17:18:00,
2014-04-17 10:23:00,71.2,33.8,29.93,WSW,239,4.0,4.0,24,0.00,,,0.00,WeatherTracker,2014-04-17 17:23:00,
2014-04-17 10:28:00,71.6,31.8,29.93,WSW,239,5.0,5.0,23,0.00,,,0.00,WeatherTracker,2014-04-17 17:28:00,
2014-04-17 10:33:00,72.0,32.1,29.93,SSE,166,3.0,3.0,23,0.00,,,0.00,WeatherTracker,2014-04-17 17:33:00,
2014-04-17 10:38:00,72.3,32.4,29.93,SSW,208,3.0,5.0,23,0.00,,,0.00,WeatherTracker,2014-04-17 17:38:00,
2014-04-17 10:43:00,72.5,31.5,29.93,WSW,244,5.0,8.0,22,0.00,,,0.00,WeatherTracker,2014-04-17 17:43:00,
2014-04-17 10:48:00,72.5,31.5,29.93,SSW,210,4.0,0.0,22,0.00,,,0.00,WeatherTracker,2014-04-17 17:48:00,
2014-04-17 10:53:00,72.5,31.5,29.93,WNW,297,5.0,6.0,22,0.00,,,0.00,WeatherTracker,2014-04-17 17:53:00,
2014-04-17 10:58:00,72.7,31.6,29.93,WNW,284,4.0,6.0,22,0.00,,,0.00,WeatherTracker,2014-04-17 17:58:00,
2014-04-17 11:03:00,72.5,31.5,29.93,WSW,243,4.0,4.0,22,0.00,,,0.00,WeatherTracker,2014-04-17 18:03:00,
2014-04-17 11:08:00,72.7,31.6,29.93,NW,310,4.0,6.0,22,0.00,,,0.00,WeatherTracker,2014-04-17 18:08:00,
2014-04-17 11:13:00,73.2,32.1,29.93,WSW,245,4.0,4.0,22,0.00,,,0.00,WeatherTracker,2014-04-17 18:13:00,
2014-04-17 11:18:00,73.2,32.1,29.93,South,175,3.0,4.0,22,0.00,,,0.00,WeatherTracker,2014-04-17 18:18:00,
2014-04-17 11:23:00,73.2,32.1,29.93,WSW,243,6.0,6.0,22,0.00,,,0.00,WeatherTracker,2014-04-17 18:23:00,
2014-04-17 11:28:00,73.0,31.9,29.93,SW,230,4.0,4.0,22,0.00,,,0.00,WeatherTracker,2014-04-17 18:28:00,
2014-04-17 11:33:00,73.2,32.1,29.93,WNW,292,4.0,5.0,22,0.00,,,0.00,WeatherTracker,2014-04-17 18:33:00,
2014-04-17 11:38:00,73.4,31.1,29.93,WNW,288,4.0,4.0,21,0.00,,,0.00,WeatherTracker,2014-04-17 18:38:00,
2014-04-17 11:43:00,73.4,31.1,29.93,SW,215,5.0,5.0,21,0.00,,,0.00,WeatherTracker,2014-04-17 18:43:00,
2014-04-17 11:48:00,73.4,31.1,29.93,NW,307,4.0,6.0,21,0.00,,,0.00,WeatherTracker,2014-04-17 18:48:00,
2014-04-17 11:53:00,73.6,31.2,29.93,West,265,2.0,4.0,21,0.00,,,0.00,WeatherTracker,2014-04-17 18:53:00,
2014-04-17 11:58:00,74.3,33.8,29.93,NNE,22,3.0,0.0,22,0.00,,,0.00,WeatherTracker,2014-04-17 18:58:00,
2014-04-17 12:04:00,74.7,32.1,29.93,South,189,0.0,5.0,21,0.00,,,0.00,WeatherTracker,2014-04-17 19:04:00,
2014-04-17 12:09:00,75.2,32.6,29.93,West,260,6.0,6.0,21,0.00,,,0.00,WeatherTracker,2014-04-17 19:09:00,
2014-04-17 12:14:00,75.6,32.9,29.93,WSW,243,6.0,6.0,21,0.00,,,0.00,WeatherTracker,2014-04-17 19:14:00,
2014-04-17 12:19:00,75.9,32.0,29.93,NW,322,5.0,5.0,20,0.00,,,0.00,WeatherTracker,2014-04-17 19:19:00,
2014-04-17 12:24:00,76.3,33.8,29.93,WNW,301,2.0,0.0,20,0.00,,,0.00,WeatherTracker,2014-04-17 19:24:00,
2014-04-17 12:29:00,76.6,33.8,29.93,SSW,204,3.0,4.0,20,0.00,,,0.00,WeatherTracker,2014-04-17 19:29:00,
2014-04-17 12:34:00,76.6,29.9,29.93,WSW,240,0.0,6.0,18,0.00,,,0.00,WeatherTracker,2014-04-17 19:34:00,
2014-04-17 12:39:00,76.6,29.9,29.90,WSW,255,4.0,4.0,18,0.00,,,0.00,WeatherTracker,2014-04-17 19:39:00,
2014-04-17 12:44:00,76.8,30.1,29.90,West,259,0.0,4.0,18,0.00,,,0.00,WeatherTracker,2014-04-17 19:44:00,
2014-04-17 12:49:00,77.0,30.2,29.90,WSW,257,4.0,6.0,18,0.00,,,0.00,WeatherTracker,2014-04-17 19:49:00,
2014-04-17 12:54:00,77.5,30.7,29.90,WSW,238,4.0,5.0,18,0.00,,,0.00,WeatherTracker,2014-04-17 19:54:00,
2014-04-17 12:59:00,78.1,26.7,29.90,WSW,255,4.0,9.0,15,0.00,,,0.00,WeatherTracker,2014-04-17 19:59:00,
2014-04-17 13:04:00,78.6,27.1,29.90,SW,214,4.0,4.0,15,0.00,,,0.00,WeatherTracker,2014-04-17 20:04:00,
2014-04-17 13:09:00,79.0,27.4,29.90,SW,236,4.0,5.0,15,0.00,,,0.00,WeatherTracker,2014-04-17 20:09:00,
2014-04-17 13:14:00,79.2,27.5,29.90,West,276,5.0,6.0,15,0.00,,,0.00,WeatherTracker,2014-04-17 20:14:00,
2014-04-17 13:19:00,79.3,27.7,29.90,WNW,291,5.0,5.0,15,0.00,,,0.00,WeatherTracker,2014-04-17 20:19:00,
2014-04-17 13:24:00,79.3,27.7,29.90,WSW,254,3.0,8.0,15,0.00,,,0.00,WeatherTracker,2014-04-17 20:24:00,
2014-04-17 13:29:00,79.5,22.5,29.90,WNW,285,4.0,4.0,12,0.00,,,0.00,WeatherTracker,2014-04-17 20:29:00,
2014-04-17 13:34:00,79.7,22.6,29.90,South,173,5.0,5.0,12,0.00,,,0.00,WeatherTracker,2014-04-17 20:34:00,
2014-04-17 13:39:00,79.7,22.6,29.90,SW,235,6.0,6.0,12,0.00,,,0.00,WeatherTracker,2014-04-17 20:39:00,
2014-04-17 13:44:00,79.9,22.7,29.90,West,267,5.0,6.0,12,0.00,,,0.00,WeatherTracker,2014-04-17 20:44:00,
2014-04-17 13:49:00,80.1,22.9,29.90,WSW,256,4.0,6.0,12,0.00,,,0.00,WeatherTracker,2014-04-17 20:49:00,
2014-04-17 13:54:00,80.2,23.0,29.90,NW,310,7.0,7.0,12,0.00,,,0.00,WeatherTracker,2014-04-17 20:54:00,
2014-04-17 13:59:00,80.1,22.9,29.90,SSW,209,6.0,6.0,12,0.00,,,0.00,WeatherTracker,2014-04-17 20:59:00,
2014-04-17 14:04:00,80.1,22.9,29.90,WSW,249,5.0,5.0,12,0.00,,,0.00,WeatherTracker,2014-04-17 21:04:00,
2014-04-17 14:09:00,80.1,22.9,29.87,WNW,291,4.0,6.0,12,0.00,,,0.00,WeatherTracker,2014-04-17 21:09:00,
2014-04-17 14:14:00,80.4,23.2,29.87,SW,235,5.0,5.0,12,0.00,,,0.00,WeatherTracker,2014-04-17 21:14:00,
2014-04-17 14:19:00,80.8,23.4,29.87,West,265,8.0,8.0,12,0.00,,,0.00,WeatherTracker,2014-04-17 21:19:00,
2014-04-17 14:24:00,80.8,16.7,29.87,WSW,250,6.0,8.0,9,0.00,,,0.00,WeatherTracker,2014-04-17 21:24:00,
2014-04-17 14:29:00,80.6,23.3,29.87,WSW,245,6.0,8.0,12,0.00,,,0.00,WeatherTracker,2014-04-17 21:29:00,
2014-04-17 14:34:00,80.6,23.3,29.87,West,274,6.0,6.0,12,0.00,,,0.00,WeatherTracker,2014-04-17 21:34:00,
2014-04-17 14:39:00,80.6,16.6,29.87,NW,307,7.0,7.0,9,0.00,,,0.00,WeatherTracker,2014-04-17 21:39:00,
2014-04-17 14:44:00,80.6,16.6,29.87,SW,233,4.0,6.0,9,0.00,,,0.00,WeatherTracker,2014-04-17 21:44:00,
2014-04-17 14:49:00,80.4,18.9,29.87,West,268,8.0,8.0,10,0.00,,,0.00,WeatherTracker,2014-04-17 21:49:00,
2014-04-17 14:54:00,80.2,18.7,29.87,SSW,210,5.0,8.0,10,0.00,,,0.00,WeatherTracker,2014-04-17 21:54:00,
2014-04-17 14:59:00,80.1,18.6,29.87,WSW,237,5.0,6.0,10,0.00,,,0.00,WeatherTracker,2014-04-17 21:59:00,
2014-04-17 15:04:00,79.9,18.5,29.87,WSW,251,6.0,6.0,10,0.00,,,0.00,WeatherTracker,2014-04-17 22:04:00,
2014-04-17 15:09:00,79.9,18.5,29.87,WSW,243,8.0,8.0,10,0.00,,,0.00,WeatherTracker,2014-04-17 22:09:00,
2014-04-17 15:14:00,79.9,18.5,29.87,SW,236,6.0,6.0,10,0.00,,,0.00,WeatherTracker,2014-04-17 22:14:00,
2014-04-17 15:19:00,80.2,18.7,29.87,SW,222,6.0,6.0,10,0.00,,,0.00,WeatherTracker,2014-04-17 22:19:00,
2014-04-17 15:24:00,80.2,18.7,29.87,SSW,201,6.0,11.0,10,0.00,,,0.00,WeatherTracker,2014-04-17 22:24:00,
2014-04-17 15:29:00,80.1,18.6,29.87,WSW,252,5.0,9.0,10,0.00,,,0.00,WeatherTracker,2014-04-17 22:29:00,
2014-04-17 15:34:00,79.9,18.5,29.87,WSW,255,5.0,8.0,10,0.00,,,0.00,WeatherTracker,2014-04-17 22:34:00,
2014-04-17 15:39:00,79.7,18.3,29.87,West,270,8.0,8.0,10,0.00,,,0.00,WeatherTracker,2014-04-17 22:39:00,
2014-04-17 15:44:00,79.9,18.5,29.87,SW,225,7.0,7.0,10,0.00,,,0.00,WeatherTracker,2014-04-17 22:44:00,
2014-04-17 15:49:00,80.1,18.6,29.87,WSW,245,8.0,8.0,10,0.00,,,0.00,WeatherTracker,2014-04-17 22:49:00,
2014-04-17 15:54:00,80.1,18.6,29.87,NNE,14,5.0,6.0,10,0.00,,,0.00,WeatherTracker,2014-04-17 22:54:00,
2014-04-17 15:59:00,80.2,18.7,29.87,SW,223,5.0,13.0,10,0.00,,,0.00,WeatherTracker,2014-04-17 22:59:00,
2014-04-17 16:04:00,80.2,18.7,29.87,SW,218,7.0,7.0,10,0.00,,,0.00,WeatherTracker,2014-04-17 23:04:00,
2014-04-17 16:09:00,80.1,18.6,29.87,WSW,250,6.0,8.0,10,0.00,,,0.00,WeatherTracker,2014-04-17 23:09:00,
2014-04-17 16:14:00,80.1,18.6,29.87,West,277,5.0,5.0,10,0.00,,,0.00,WeatherTracker,2014-04-17 23:14:00,
2014-04-17 16:19:00,80.1,18.6,29.87,WNW,285,7.0,7.0,10,0.00,,,0.00,WeatherTracker,2014-04-17 23:19:00,
2014-04-17 16:24:00,80.1,18.6,29.84,WNW,300,6.0,9.0,10,0.00,,,0.00,WeatherTracker,2014-04-17 23:24:00,
2014-04-17 16:29:00,79.7,18.3,29.84,West,270,4.0,4.0,10,0.00,,,0.00,WeatherTracker,2014-04-17 23:29:00,
2014-04-17 16:34:00,79.5,18.2,29.84,NNW,331,6.0,6.0,10,0.00,,,0.00,WeatherTracker,2014-04-17 23:34:00,
2014-04-17 16:39:00,79.5,18.2,29.84,WNW,283,4.0,4.0,10,0.00,,,0.00,WeatherTracker,2014-04-17 23:39:00,
2014-04-17 16:44:00,79.3,18.0,29.84,WSW,245,7.0,7.0,10,0.00,,,0.00,WeatherTracker,2014-04-17 23:44:00,
2014-04-17 16:49:00,79.0,17.8,29.84,WSW,252,6.0,6.0,10,0.00,,,0.00,WeatherTracker,2014-04-17 23:49:00,
2014-04-17 16:54:00,78.8,17.6,29.84,SW,227,8.0,8.0,10,0.00,,,0.00,WeatherTracker,2014-04-17 23:54:00,
2014-04-17 16:59:00,78.4,23.5,29.84,West,264,6.0,6.0,13,0.00,,,0.00,WeatherTracker,2014-04-17 23:59:00,
2014-04-17 17:04:00,78.4,23.5,29.84,West,264,5.0,8.0,13,0.00,,,0.00,WeatherTracker,2014-04-18 00:04:00,
2014-04-17 17:09:00,78.3,23.4,29.84,WNW,299,7.0,7.0,13,0.00,,,0.00,WeatherTracker,2014-04-18 00:09:00,
2014-04-17 17:14:00,78.1,23.2,29.84,WNW,285,6.0,6.0,13,0.00,,,0.00,WeatherTracker,2014-04-18 00:14:00,
2014-04-17 17:19:00,77.7,23.0,29.84,West,276,7.0,7.0,13,0.00,,,0.00,WeatherTracker,2014-04-18 00:19:00,
2014-04-17 17:24:00,77.4,22.7,29.84,WNW,282,5.0,6.0,13,0.00,,,0.00,WeatherTracker,2014-04-18 00:24:00,
2014-04-17 17:29:00,77.2,22.5,29.84,NW,308,7.0,7.0,13,0.00,,,0.00,WeatherTracker,2014-04-18 00:29:00,